TimeCST,TemperatureF,Dew PointF,Humidity,Sea Level PressureIn,VisibilityMPH,Wind Direction,Wind SpeedMPH,Gust SpeedMPH,PrecipitationIn,Events,Conditions,WindDirDegrees,DateUTC
12:37 AM,46.4,42.8,87,30.07,2.5,Calm,Calm,-,N/A,,Overcast,0,2012-11-20 06:37:00
12:53 AM,45.0,43.0,93,30.08,2.5,South,3.5,-,N/A,,Overcast,170,2012-11-20 06:53:00
1:53 AM,46.4,42.8,87,30.07,2.0,Calm,Calm,-,N/A,,Overcast,0,2012-11-20 07:53:00
2:42 AM,44.6,42.8,93,30.07,2.0,Calm,Calm,-,N/A,,Overcast,0,2012-11-20 08:42:00
2:53 AM,45.0,43.0,93,30.08,1.8,Calm,Calm,-,N/A,,Overcast,0,2012-11-20 08:53:00
3:53 AM,45.0,43.0,93,30.07,1.2,Calm,Calm,-,N/A,,Overcast,0,2012-11-20 09:53:00
4:53 AM,45.0,42.1,90,30.09,1.5,Calm,Calm,-,N/A,,Overcast,0,2012-11-20 10:53:00
5:53 AM,44.1,43.0,96,30.09,1.5,Calm,Calm,-,N/A,,Overcast,0,2012-11-20 11:53:00
6:53 AM,44.1,42.1,93,30.11,1.2,Calm,Calm,-,N/A,,Overcast,0,2012-11-20 12:53:00
7:09 AM,42.8,41.0,93,30.10,0.5,WNW,3.5,-,N/A,Fog,Fog,300,2012-11-20 13:09:00
7:38 AM,42.8,41.0,93,30.10,0.2,Calm,Calm,-,N/A,Fog,Fog,0,2012-11-20 13:38:00
7:49 AM,39.2,39.2,100,30.09,0.2,Calm,Calm,-,N/A,Fog,Fog,0,2012-11-20 13:49:00
7:50 AM,39.9,39.0,97,30.11,0.2,Calm,Calm,-,N/A,Fog,Fog,0,2012-11-20 13:50:00
8:26 AM,42.8,42.8,100,30.09,0.2,Calm,Calm,-,N/A,Fog,Fog,0,2012-11-20 14:26:00
8:41 AM,44.6,42.8,93,30.09,0.5,Calm,Calm,-,N/A,Fog,Fog,0,2012-11-20 14:41:00
8:53 AM,45.0,44.1,97,30.11,0.8,Calm,Calm,-,N/A,,Clear,0,2012-11-20 14:53:00
9:04 AM,44.6,44.6,100,30.09,1.0,Calm,Calm,-,N/A,,Clear,0,2012-11-20 15:04:00
9:21 AM,46.4,42.8,87,30.10,1.2,Calm,Calm,-,N/A,,Partly Cloudy,0,2012-11-20 15:21:00
9:40 AM,48.2,42.8,82,30.09,2.0,Calm,Calm,-,N/A,,Haze,0,2012-11-20 15:40:00
9:53 AM,48.9,43.0,80,30.11,2.5,WNW,3.5,-,N/A,,Haze,290,2012-11-20 15:53:00
10:12 AM,50.0,42.8,76,30.09,3.0,Calm,Calm,-,N/A,,Haze,0,2012-11-20 16:12:00
10:53 AM,53.1,42.1,66,30.10,4.0,Calm,Calm,-,N/A,,Haze,0,2012-11-20 16:53:00
11:53 AM,55.0,42.1,62,30.10,5.0,WNW,4.6,-,N/A,,Haze,300,2012-11-20 17:53:00
12:53 PM,55.9,39.9,55,30.10,5.0,Calm,Calm,-,N/A,,Haze,0,2012-11-20 18:53:00
1:53 PM,57.0,39.9,53,30.09,6.0,Calm,Calm,-,N/A,,Haze,0,2012-11-20 19:53:00
2:53 PM,55.9,41.0,57,30.10,6.0,West,4.6,-,N/A,,Haze,260,2012-11-20 20:53:00
3:53 PM,53.1,42.1,66,30.12,6.0,Calm,Calm,-,N/A,,Haze,0,2012-11-20 21:53:00
4:53 PM,48.0,39.9,74,30.12,6.0,Calm,Calm,-,N/A,,Haze,0,2012-11-20 22:53:00
5:53 PM,45.0,39.9,82,30.13,6.0,Calm,Calm,-,N/A,,Haze,0,2012-11-20 23:53:00
6:53 PM,41.0,37.9,89,30.15,5.0,Calm,Calm,-,N/A,,Clear,0,2012-11-21 00:53:00
7:53 PM,39.0,37.0,93,30.16,4.0,Calm,Calm,-,N/A,,Clear,0,2012-11-21 01:53:00
8:53 PM,37.9,36.0,93,30.15,8.0,SE,3.5,-,N/A,,Clear,130,2012-11-21 02:53:00
9:53 PM,37.9,36.0,93,30.14,5.0,Calm,Calm,-,N/A,,Clear,0,2012-11-21 03:53:00
10:53 PM,39.9,37.0,89,30.15,5.0,SSW,3.5,-,N/A,,Clear,200,2012-11-21 04:53:00
11:34 PM,37.4,35.6,93,30.14,2.5,Calm,Calm,-,N/A,,Clear,0,2012-11-21 05:34:00
11:53 PM,36.0,33.1,89,30.16,2.0,Calm,Calm,-,N/A,,Clear,0,2012-11-21 05:53:00